Orbital Elements at Epoch 2459200.5 (2020-Dec-17.0) TDB
Reference: JPL 15 (heliocentric ecliptic J2000)
Element | Value | Uncertainty (1-sigma) | Units |
e | .07272202753141042 | 6.6038e-08 | |
a | 2.639641382947454 | 2.8706e-08 | au |
q | 2.447681309623699 | 1.5979e-07 | au |
i | 4.251278744270801 | 5.4942e-06 | deg |
node | 114.0099074184562 | 9.4224e-05 | deg |
peri | 56.31440996803214 | 0.00010603 | deg |
M | 108.9201357377421 | 4.8074e-05 | deg |
tp | 2458726.562042480925 (2019-Aug-31.06204248) | 0.00020674 | TDB |
period | 1566.447411685937 4.29 | 2.5552e-05 6.996e-08 | d yr |
n | .2298193972643735 | 3.7489e-09 | deg/d |
Q | 2.831601456271209 | 3.0793e-08 | au |
|
| | Orbit Determination Parameters
Additional Information
|